Location: Allonne
(49.4086°N, 2.1143°E)
Time: 19:45:17
(UTC+00:00)

UNISAT 6 - Pass Details

Date: 04 December 2023
Orbit: 596 x 670 km, 97.7° (Epoch: 29 February)

Event Time Altitude Azimuth Distance (km) Brightness Sun altitude
Rises 15:10:50 0° 39° (NE) 2,973 ? 4.6°
Enters shadow 16:23:06 -52° 360° (N) 10,917 ? -4.9°
Exits shadow 16:45:22 -2° 15° (NNE) 3,245 ? -8.1°
Maximum altitude 16:52:43 58° 100° (E) 748 ? -9.2°
